TimeEDT,TemperatureF,Dew PointF,Humidity,Sea Level PressureIn,VisibilityMPH,Wind Direction,Wind SpeedMPH,Gust SpeedMPH,PrecipitationIn,Events,Conditions,WindDirDegrees,DateUTC
12:43 AM,42.8,35.6,76,30.03,10.0,NW,5.8,16.1,N/A,,Scattered Clouds,310,2013-09-24 04:43:00
12:54 AM,43.0,36.0,76,30.02,10.0,NW,6.9,-,N/A,,Clear,310,2013-09-24 04:54:00
1:54 AM,39.9,35.1,83,30.01,10.0,WNW,8.1,-,N/A,,Clear,300,2013-09-24 05:54:00
2:54 AM,39.0,36.0,89,30.00,10.0,WNW,6.9,-,N/A,,Clear,300,2013-09-24 06:54:00
3:54 AM,39.0,36.0,89,29.99,10.0,NW,4.6,-,N/A,,Clear,310,2013-09-24 07:54:00
4:54 AM,39.9,35.1,83,29.99,10.0,Calm,Calm,-,N/A,,Clear,0,2013-09-24 08:54:00
5:54 AM,39.0,35.1,86,29.99,10.0,Calm,Calm,-,N/A,,Partly Cloudy,0,2013-09-24 09:54:00
6:54 AM,39.0,36.0,89,30.00,10.0,Calm,Calm,-,N/A,,Clear,0,2013-09-24 10:54:00
7:54 AM,44.1,37.0,76,29.98,10.0,WNW,8.1,16.1,N/A,,Clear,300,2013-09-24 11:54:00
8:54 AM,45.0,37.0,74,29.97,10.0,WNW,12.7,17.3,N/A,,Partly Cloudy,290,2013-09-24 12:54:00
9:54 AM,48.9,39.0,69,29.95,10.0,WNW,8.1,-,N/A,,Clear,290,2013-09-24 13:54:00
10:54 AM,51.1,39.0,63,29.95,10.0,NW,8.1,19.6,N/A,,Clear,320,2013-09-24 14:54:00
11:54 AM,54.0,41.0,62,29.93,10.0,WNW,8.1,18.4,N/A,,Clear,290,2013-09-24 15:54:00
12:54 PM,57.0,41.0,55,29.92,10.0,WNW,11.5,19.6,N/A,,Clear,300,2013-09-24 16:54:00
1:54 PM,57.9,39.9,51,29.90,10.0,NW,15.0,18.4,N/A,,Clear,310,2013-09-24 17:54:00
2:54 PM,60.1,41.0,49,29.89,10.0,WNW,12.7,20.7,N/A,,Clear,300,2013-09-24 18:54:00
3:54 PM,60.1,39.9,47,29.87,10.0,West,10.4,21.9,N/A,,Clear,280,2013-09-24 19:54:00
4:54 PM,60.1,41.0,49,29.87,10.0,NW,12.7,-,N/A,,Clear,310,2013-09-24 20:54:00
5:54 PM,59.0,43.0,55,29.87,10.0,WNW,6.9,-,N/A,,Clear,290,2013-09-24 21:54:00
6:54 PM,54.0,43.0,66,29.87,10.0,WNW,10.4,-,N/A,,Clear,290,2013-09-24 22:54:00
7:54 PM,54.0,42.1,64,29.90,10.0,Calm,Calm,-,N/A,,Clear,0,2013-09-24 23:54:00
8:54 PM,52.0,43.0,71,29.91,10.0,Calm,Calm,-,N/A,,Clear,0,2013-09-25 00:54:00
9:54 PM,50.0,43.0,77,29.92,10.0,Calm,Calm,-,N/A,,Clear,0,2013-09-25 01:54:00
10:54 PM,48.9,44.1,83,29.93,10.0,SSW,3.5,-,N/A,,Clear,200,2013-09-25 02:54:00
11:54 PM,46.9,43.0,86,29.93,10.0,WSW,5.8,-,N/A,,Clear,250,2013-09-25 03:54:00